Stations météo

réclame
Mon MeteoGroup
Plymouth, Grande-Bretagne (3827): Température de l'air & dewpoint: 08.08.2020 20:00:00 - 14.08.2020 20:00:00 (BST)Plymouth, Grande-Bretagne (3827): Vitesse du vent: 08.08.2020 20:00:00 - 14.08.2020 20:00:00 (BST)Plymouth, Grande-Bretagne (3827): Direction du vent: 08.08.2020 20:00:00 - 14.08.2020 20:00:00 (BST)Plymouth, Grande-Bretagne (3827): reduced air pressure: 08.08.2020 20:00:00 - 14.08.2020 20:00:00 (BST)Plymouth, Grande-Bretagne (3827): visibility: 08.08.2020 20:00:00 - 14.08.2020 20:00:00 (BST)Plymouth, Grande-Bretagne (3827): Quantités de précipitations: 08.08.2020 20:00:00 - 14.08.2020 20:00:00 (BST)
Date & Time tt [°C] td [°C] ff [km/h] ff [knt] dd ppp [hPa] vv [km] rr [mm]
14.08.2020 20:00:00 19,0 18,4 13 7 WNW 1014,9 2,9 0,0
14.08.2020 19:00:00 19,0 18,6 8 4 WSW 1014,6 6 0,0
14.08.2020 18:00:00 18,6 18,0 11 6 SSW 1014,6 5 0,0
14.08.2020 17:00:00 19,1 18,1 13 7 SSW 1014,4 4,0 0,0
14.08.2020 16:00:00 19,9 18,2 15 8 SSW 1014,4 6 0,0
14.08.2020 15:00:00 21,6 20,1 11 6 S 1014,4 9 0,0
14.08.2020 14:00:00 19,7 19,0 8 4 SSW 1014,7 6 0,0
14.08.2020 13:00:00 19,8 18,8 13 7 S 1014,4 4,2 0,0
14.08.2020 12:00:00 21,1 20,7 8 4 SSW 1014,3 2,9 0,0
14.08.2020 11:00:00 19,9 19,8 5 3 SSW 1014,2 3,1 0,2
14.08.2020 10:00:00 18,9 18,8 5 3 SSW 1013,9 1,5 0,6
14.08.2020 09:00:00 18,4 18,4 5 3 SW 1013,7 1,8 0,2
14.08.2020 08:00:00 18,4 18,3 4 2 W 1013,4 4,7 0,0
14.08.2020 07:00:00 18,3 18,2 5 3 SW 1013,0 1,5 0,0
14.08.2020 06:00:00 18,2 18,1 2 1 W 1013,0 2,3 0,0
14.08.2020 05:00:00 18,1 18,0 5 3 SW 1012,9 1,3 0,4
14.08.2020 04:00:00 17,7 17,6 5 3 WSW 1012,8 0,3 4,8
14.08.2020 03:00:00 17,9 17,7 5 3 SW 1013,3 0,2 3,2
14.08.2020 02:00:00 17,9 17,8 8 4 SSW 1013,4 1,3 0,0
14.08.2020 01:00:00 17,9 17,7 2 1 SW 1013,3 2,6 0,0
14.08.2020 00:00:00 18,0 17,8 5 3 W 1013,6 1,4 0,0
13.08.2020 23:00:00 18,0 17,7 9 5 SW 1013,5 1,9 0,0
13.08.2020 22:00:00 18,1 17,7 8 4 SSW 1013,5 5 0,0
13.08.2020 21:00:00 18,1 17,2 8 4 SSW 1012,8 9 0,0
13.08.2020 20:00:00 18,8 17,7 5 3 SSW 1012,5 10 0,0
13.08.2020 19:00:00 19,4 17,6 11 6 SSW 1012,5 14 0,0
13.08.2020 18:00:00 19,6 17,3 13 7 SSW 1012,8 12 0,0
13.08.2020 17:00:00 21,6 18,0 9 5 SSW 1012,8 19 0,0
13.08.2020 16:00:00 22,6 18,8 18 10 SSW 1012,2 20 0,0
13.08.2020 15:00:00 22,9 19,2 16 9 SSW 1012,4 18 0,0
13.08.2020 14:00:00 22,7 19,2 16 9 SSW 1012,6 12 0,0
13.08.2020 13:00:00 22,6 20,1 11 6 SW 1012,7 5 0,0
13.08.2020 12:00:00 21,0 19,5 8 4 SW 1012,7 4,6 0,0
13.08.2020 11:00:00 21,0 20,4 8 4 S 1012,5 3,8 0,0
13.08.2020 10:00:00 19,7 19,5 5 3 S 1012,1 1,2 0,0
13.08.2020 09:00:00 19,3 19,1 5 3 SSW 1012,1 0,8 0,0
13.08.2020 08:00:00 19,5 19,4 4 2 E 1011,9 0,8 0,0
13.08.2020 07:00:00 18,6 18,5 4 2 S 1011,6 0,9 0,4
13.08.2020 06:00:00 18,5 18,3 5 3 SW 1011,4 0,2 0,2
13.08.2020 05:00:00 19,1 18,9 5 3 NE 1011,1 0,5 0,4
13.08.2020 04:00:00 19,2 18,9 8 4 E 1011,9 0,5 0,0
13.08.2020 03:00:00 19,2 18,9 5 3 SE 1012,2 0,4 0,0
13.08.2020 02:00:00 19,1 18,8 4 2 NNE 1011,9 0,4 0,0
13.08.2020 01:00:00 19,0 18,7 4 2 SSE 1012,0 0,3 0,0
13.08.2020 00:00:00 19,2 18,8 5 3 SSE 1011,7 0,6 0,0
12.08.2020 23:00:00 19,5 19,1 5 3 E 1012,2 0,6 0,0
12.08.2020 22:00:00 19,7 19,1 4 2 N 1012,1 1,5 0,2
12.08.2020 21:00:00 19,5 18,7 8 4 W 1011,7 1,3 3,2
12.08.2020 20:00:00 20,9 18,1 9 5 SSE 1011,6 9 0,0
12.08.2020 19:00:00 22,4 17,2 9 5 SW 1011,1 14 0,0
12.08.2020 18:00:00 24,4 18,8 16 9 SSE 1011,1 16 0,0
12.08.2020 17:00:00 23,2 16,8 11 6 SSW 1011,5 13 0,0
12.08.2020 16:00:00 27,0 18,3 15 8 SSW 1011,6 20 0,0
12.08.2020 15:00:00 28,5 18,7 13 7 S 1011,8 22 0,0
12.08.2020 14:00:00 29,1 18,4 9 5 SSE 1012,2 - 0,0
12.08.2020 13:00:00 - - 16 9 SE - 25 0,0
12.08.2020 12:00:00 28,7 19,1 13 7 SE 1012,4 22 0,0
12.08.2020 11:00:00 26,9 19,5 15 8 E 1012,5 18 0,0
12.08.2020 10:00:00 24,1 19,4 4 2 SW 1012,2 21 0,0
12.08.2020 09:00:00 21,0 17,9 4 2 SSW 1012,0 17 0,0
12.08.2020 08:00:00 18,3 16,7 5 3 NW 1012,2 16 0,0
12.08.2020 07:00:00 17,4 16,3 5 3 W 1012,8 12 0,0
12.08.2020 06:00:00 16,9 16,0 5 3 NW 1012,3 12 0,0
12.08.2020 05:00:00 17,3 16,3 5 3 NNW 1012,4 12 0,0
12.08.2020 04:00:00 17,6 16,3 5 3 WNW 1012,8 11 0,0
12.08.2020 03:00:00 18,1 16,9 9 5 NW 1013,0 9 0,0
12.08.2020 02:00:00 18,4 17,0 4 2 NW 1013,0 9 0,0
12.08.2020 01:00:00 19,1 17,4 5 3 NW 1013,3 10 0,0
12.08.2020 00:00:00 19,9 17,9 9 5 NW 1013,7 11 0,0
11.08.2020 23:00:00 20,0 18,1 5 3 NW 1013,9 10 0,0
11.08.2020 22:00:00 20,7 17,9 5 3 NW 1014,2 11 0,0
11.08.2020 21:00:00 22,0 18,8 9 5 NNW 1013,9 12 0,0
11.08.2020 20:00:00 23,9 19,3 9 5 NNW 1013,7 16 0,0
11.08.2020 19:00:00 23,4 18,4 9 5 SSW 1013,4 13 0,0
11.08.2020 18:00:00 24,2 18,0 18 10 SSW 1013,4 14 0,0
11.08.2020 17:00:00 25,9 18,2 13 7 SSW 1013,5 17 0,0
11.08.2020 16:00:00 25,0 18,8 11 6 SSW 1014,2 15 0,0
11.08.2020 15:00:00 26,3 18,6 16 9 SSW 1014,4 17 0,0
11.08.2020 14:00:00 26,0 18,8 13 7 SSW 1014,6 17 0,0
11.08.2020 13:00:00 25,8 18,8 9 5 SSW 1014,9 16 0,0
11.08.2020 12:00:00 24,4 18,4 9 5 SSW 1015,0 18 0,0
11.08.2020 11:00:00 23,7 18,7 8 4 WSW 1015,1 22 0,0
11.08.2020 10:00:00 20,5 17,5 4 2 WSW 1015,1 19 0,0
11.08.2020 09:00:00 19,4 17,7 2 1 WNW 1015,2 15 0,0
11.08.2020 08:00:00 17,7 17,4 2 1 N 1014,9 12 0,0
11.08.2020 07:00:00 16,3 16,0 4 2 W 1015,3 6 0,0
11.08.2020 06:00:00 15,6 15,1 4 2 NW 1014,9 9 0,0
11.08.2020 05:00:00 16,1 15,7 8 4 WNW 1014,6 9 0,0
11.08.2020 04:00:00 16,3 15,7 5 3 NW 1014,7 7 0,0
11.08.2020 03:00:00 16,9 16,2 9 5 NNW 1014,9 9 0,0
11.08.2020 02:00:00 17,4 16,7 9 5 N 1015,0 7 0,0
11.08.2020 01:00:00 17,7 16,9 9 5 N 1015,2 7 0,0
11.08.2020 00:00:00 18,0 17,4 9 5 NNW 1015,5 4,8 0,0
10.08.2020 23:00:00 18,5 17,8 11 6 N 1015,6 5 0,0
10.08.2020 22:00:00 18,2 16,8 5 3 WNW 1015,2 7 0,0
10.08.2020 21:00:00 19,3 17,5 11 6 W 1014,7 9 0,0
10.08.2020 20:00:00 20,8 17,9 4 2 SW 1014,6 11 0,0
10.08.2020 19:00:00 20,5 17,7 13 7 SSW 1014,3 11 0,0
10.08.2020 18:00:00 22,6 18,1 13 7 SSW 1014,1 14 0,0
10.08.2020 17:00:00 23,9 19,1 11 6 S 1014,2 15 0,0
10.08.2020 16:00:00 25,4 19,3 9 5 S 1014,3 19 0,0
10.08.2020 15:00:00 25,4 19,4 9 5 NNE 1014,1 19 0,0
10.08.2020 14:00:00 22,6 18,8 16 9 NNW 1013,9 16 0,0
10.08.2020 13:00:00 20,7 18,6 16 9 NNW 1013,8 10 0,0
10.08.2020 12:00:00 19,4 17,9 8 4 N 1014,6 9 0,0
10.08.2020 11:00:00 19,6 18,1 8 4 NNW 1014,7 7 1,0
10.08.2020 10:00:00 19,0 16,9 11 6 NNE 1014,6 2,7 0,2
10.08.2020 09:00:00 18,4 16,1 15 8 NNW 1014,2 11 0,0
10.08.2020 08:00:00 17,9 16,1 15 8 NNW 1014,2 11 0,0
10.08.2020 07:00:00 17,8 16,1 13 7 NW 1013,9 11 0,0
10.08.2020 06:00:00 17,7 16,4 11 6 N 1013,2 10 0,0
10.08.2020 05:00:00 17,3 15,8 9 5 N 1014,4 12 0,0
10.08.2020 04:00:00 17,0 15,5 9 5 NNW 1015,3 11 0,0
10.08.2020 03:00:00 17,2 15,8 11 6 NNW 1015,5 11 0,0
10.08.2020 02:00:00 17,0 16,0 13 7 NNW 1015,3 7 0,0
10.08.2020 01:00:00 16,7 15,8 11 6 N 1016,0 5 0,0
10.08.2020 00:00:00 16,8 15,5 11 6 N 1016,6 6 0,0
09.08.2020 23:00:00 17,6 15,5 13 7 NNW 1016,7 9 0,0
09.08.2020 22:00:00 19,0 16,0 15 8 N 1016,8 10 0,0
09.08.2020 21:00:00 20,8 16,8 15 8 N 1016,3 12 0,0
09.08.2020 20:00:00 20,9 17,0 8 4 SW 1016,4 16 0,0
09.08.2020 19:00:00 23,1 17,5 8 4 SW 1016,3 15 0,0
09.08.2020 18:00:00 23,7 17,5 8 4 SW 1016,2 22 0,0
09.08.2020 17:00:00 26,1 19,0 5 3 SSW 1016,7 25 0,0
09.08.2020 16:00:00 24,2 18,2 13 7 SSW 1017,0 22 0,0
09.08.2020 15:00:00 23,5 17,5 21 11 SSW 1017,2 21 0,0
09.08.2020 14:00:00 23,5 17,0 13 7 SSW 1017,4 23 0,0
09.08.2020 13:00:00 24,1 18,1 11 6 SSW 1017,9 23 0,0
09.08.2020 12:00:00 22,9 17,3 8 4 SW 1018,3 22 0,0
09.08.2020 11:00:00 21,2 17,7 8 4 WSW 1018,8 22 0,0
09.08.2020 10:00:00 19,3 16,8 8 4 W 1018,9 21 0,0
09.08.2020 09:00:00 17,9 16,4 5 3 W 1018,9 23 0,0
09.08.2020 08:00:00 16,0 15,4 8 4 NW 1018,8 17 0,0
09.08.2020 07:00:00 15,0 14,7 11 6 NW 1019,1 12 0,0
09.08.2020 06:00:00 14,9 14,2 9 5 NNW 1018,9 16 0,0
09.08.2020 05:00:00 15,3 14,3 8 4 NW 1018,9 17 0,0
09.08.2020 04:00:00 16,1 14,9 11 6 NW 1019,0 21 0,0
09.08.2020 03:00:00 16,4 15,1 8 4 N 1019,2 20 0,0
09.08.2020 02:00:00 16,7 15,4 9 5 NNW 1019,5 23 0,0
09.08.2020 01:00:00 16,8 15,7 8 4 NNW 1019,7 22 0,0
09.08.2020 00:00:00 17,0 15,8 9 5 NNW 1019,7 19 0,0
08.08.2020 23:00:00 17,5 16,3 11 6 NNW 1019,7 19 0,0
08.08.2020 22:00:00 18,0 16,4 13 7 NNW 1019,7 19 0,0
08.08.2020 21:00:00 19,0 16,6 11 6 NNW 1019,6 19 0,0
08.08.2020 20:00:00 20,6 17,0 13 7 NNW 1019,5 21 0,0

tt = Température de l'air
td = dewpoint
ff = Vitesse du vent
dd = Direction du vent
ppp = reduced air pressure
vv = visibility
rr = Quantités de précipitations

stations d'obs. à proximité